Temperature
27 28 28 28 28 28 28 29 29 29 29 28 27 26 25 24 23 23 22 22 21 21 21 20 20 20 20 19 19 19 19 19 19 20 20 19 19 19 19 19 18 18 18 18
26 27 27 27 27 28 28 28 28 28 28 27 26 25 24 24 23 22 22 21 21 20 20 20 20 19 19 19 19 19 19 19 19 19 19 19 19 19 19 18 18 18 18 17
25 27 26 26 27 27 27 27 27 27 27 26 25 25 24 23 22 22 21 21 20 20 20 19 19 19 19 19 19 19 19 19 19 19 18 18 18 18 18 18 18 17 17 17
25 25 24 26 26 26 26 26 26 26 25 25 24 23 22 22 21 21 20 20 19 19 19 19 19 18 18 18 18 18 18 18 18 18 18 18 18 17 17 17 17 17 17 17
24 24 25 25 25 25 25 25 25 24 24 23 23 22 22 20 20 19 19 18 18 18 18 18 18 18 18 18 18 18 18 18 17 17 17 17 17 17 17 17 17 17 16 16
23 23 23 24 24 23 24 24 23 23 22 22 22 23 23 19 19 18 18 18 17 17 17 17 17 17 17 17 17 17 17 17 16 16 16 17 17 16 16 16 16 16 16 16
22 23 24 23 22 23 23 23 21 21 21 21 21 21 19 18 18 17 17 17 17 17 17 16 16 16 16 16 16 16 16 16 16 16 16 16 16 16 15 15 15 15 15 15
22 22 22 21 22 22 21 20 19 20 20 19 19 18 18 17 17 16 16 16 16 16 16 16 16 16 16 16 16 16 16 15 15 15 15 15 15 15 15 15 15 15 14 15
21 21 20 19 19 19 18 18 18 18 18 18 18 18 17 17 16 16 16 15 15 15 15 15 15 15 15 15 15 15 15 15 15 15 15 14 14 14 14 14 14 14 14 14
19 20 19 18 18 17 17 17 17 17 17 17 17 17 16 16 15 15 15 15 15 15 15 14 14 14 15 15 15 15 14 14 14 14 14 14 14 14 14 14 14 14 14 14
18 19 18 18 17 17 16 16 16 16 16 16 16 16 15 15 15 15 15 14 14 14 14 14 14 14 14 14 14 14 14 14 14 14 13 13 13 13 13 13 13 13 13 13
18 18 18 17 16 16 16 16 16 16 15 15 15 15 15 14 14 14 14 14 14 13 13 13 13 13 13 13 13 13 13 13 13 13 13 13 13 13 13 13 13 13 13 12
17 16 16 16 15 15 15 15 15 15 15 14 14 14 14 14 14 13 13 13 13 13 13 12 12 12 12 12 12 12 12 12 12 12 12 12 12 12 12 12 12 12 12 12
15 15 15 15 15 15 14 14 14 14 14 14 14 14 14 13 13 13 13 13 12 12 12 12 12 12 12 12 12 12 12 12 12 12 12 12 12 12 12 11 11 11 12 12
14 14 14 14 14 14 14 14 14 14 14 13 13 13 13 13 12 12 12 12 12 12 12 12 12 11 11 11 11 11 11 11 11 11 11 11 11 11 11 11 11 11 11 11
14 14 14 14 14 14 14 14 14 13 13 13 13 13 12 12 12 11 11 11 11 11 11 11 11 11 11 11 11 11 11 11 11 11 11 11 11 11 11 10 10 10 10 10
14 14 14 13 13 13 13 13 13 13 13 12 12 12 12 11 11 11 11 11 11 11 11 11 10 10 10 10 10 10 10 10 10 10 10 10 10 10 10 10 10 10 10 10
13 13 13 13 13 13 13 12 12 12 12 12 11 11 11 11 11 11 11 10 10 10 10 10 10 10 10 10 10 10 10 10 10 10 10 10 10 10 10 9 9 9 9 9
13 13 12 12 12 12 12 12 12 11 11 11 11 11 11 11 10 10 10 10 10 10 10 10 10 9 9 10 10 10 10 10 10 9 9 9 9 9 9 9 9 9 9 9
12 12 12 12 12 12 12 11 11 11 11 10 10 10 10 10 10 10 10 10 10 9 9 9 9 9 9 9 9 9 9 9 9 9 9 9 9 9 9 9 9 9 9 8
12 12 11 11 11 11 11 11 11 10 10 10 10 10 10 10 10 10 10 10 9 9 9 9 9 9 9 9 9 9 9 9 9 9 9 9 9 8 8 8 8 8 8 8
11 11 11 11 11 10 10 10 10 10 10 10 10 10 10 10 10 10 9 9 9 9 9 9 9 9 9 9 9 9 9 9 9 9 8 8 8 8 8 8 8 8 8 8
11 11 10 10 10 10 10 10 10 10 10 10 10 10 10 10 10 10 9 9 9 9 9 9 9 9 9 9 9 9 9 9 8 8 8 8 8 8 8 8 8 7 7 7
10 10 10 10 10 10 10 10 10 10 10 9 9 9 9 9 9 9 9 9 9 9 9 9 9 9 9 9 9 9 8 8 8 8 8 8 8 8 8 8 7 7 7 7
10 10 10 10 10 10 10 10 10 10 10 10 10 9 9 9 9 9 9 9 9 9 8 9 9 8 8 8 8 8 8 8 8 8 8 8 8 8 7 7 7 7 7 7
10 10 10 10 10 10 10 10 10 10 10 10 10 9 9 9 9 9 9 9 9 9 8 8 8 8 8 8 8 8 8 8 8 8 8 8 7 7 7 7 7 7 7 6
10 10 10 10 10 10 10 10 10 10 10 10 10 10 9 9 9 9 9 9 9 9 9 9 8 9 9 9 8 8 8 8 8 8 8 8 7 7 7 7 7 6 6 6
Wind_Speed
11 9 9 11 12 13 15 15 15 14 12 6 3 2 1 1 2 2 3 3 3 4 4 4 4 4 5 5 6 7 8 8 8 7 7 6 6 7 7 7 8 8 8 8
12 12 12 12 12 13 15 14 14 13 10 4 2 2 2 2 2 2 2 2 3 3 4 4 4 4 4 4 5 6 6 7 6 6 5 5 5 5 6 7 7 8 8 8
12 11 12 15 13 13 13 11 12 12 8 3 3 3 2 2 1 1 2 2 2 2 2 3 3 4 4 4 5 6 6 6 5 5 4 4 5 6 6 7 7 7 8 8
10 10 16 6 3 7 9 8 7 6 4 3 2 2 2 1 0 0 1 1 1 1 1 2 2 3 3 3 4 4 4 4 4 3 4 4 5 6 6 6 6 6 6 7
10 14 13 6 3 4 7 8 4 4 4 3 1 2 2 1 2 1 1 1 1 1 1 2 2 2 2 2 3 3 3 3 3 3 3 4 5 5 5 5 5 5 6 6
10 13 13 5 1 4 7 9 1 1 2 3 3 5 2 3 2 1 1 1 1 1 2 2 2 2 1 1 2 1 1 1 1 2 3 3 4 4 4 4 5 5 4 5
14 14 9 1 1 4 8 3 1 2 2 3 3 3 2 1 1 1 1 2 1 2 2 2 2 1 1 1 1 1 0 1 1 2 2 2 2 3 4 4 4 4 4 4
12 14 9 2 1 3 2 2 1 2 2 2 1 1 0 0 0 1 1 1 1 1 2 2 1 1 1 1 1 1 1 0 1 2 2 1 2 3 3 3 3 3 3 4
5 3 2 2 1 2 1 1 1 2 3 2 2 1 1 1 0 0 0 1 1 1 1 1 1 0 0 1 1 1 0 1 1 2 2 2 3 3 3 3 3 3 3 4
5 4 2 0 1 1 2 2 3 3 3 3 3 3 2 2 1 1 1 0 0 1 1 2 2 2 1 1 1 1 1 1 1 2 2 2 2 2 2 2 2 3 3 3
8 6 4 4 2 1 2 3 3 3 2 2 3 3 2 2 2 2 1 1 1 0 1 1 2 2 2 1 1 1 1 1 2 2 2 1 1 2 3 2 2 3 3 3
8 5 4 4 4 4 4 3 3 2 3 3 3 3 3 2 2 2 2 1 1 1 0 1 1 1 1 1 1 1 1 2 2 2 2 2 1 1 3 1 2 2 3 4
7 6 6 6 5 5 5 4 3 3 3 3 3 3 3 2 2 2 2 1 1 1 1 1 1 1 1 1 1 1 2 2 2 2 2 2 2 2 2 0 1 0 1 1
6 6 7 6 5 5 4 4 3 2 3 3 3 3 3 2 2 2 1 1 1 1 2 2 2 2 2 1 1 2 2 2 2 2 2 2 2 2 2 3 2 1 1 1
6 6 6 5 4 4 4 3 3 3 2 2 2 2 2 2 2 1 1 1 1 2 2 2 2 2 2 1 2 2 3 2 2 2 2 2 2 2 2 3 3 2 1 1
4 4 4 4 4 4 3 3 3 3 3 2 2 2 1 1 1 1 1 1 1 2 2 3 3 3 2 2 2 2 1 1 2 2 2 2 2 2 2 3 2 2 2 2
5 4 3 3 3 2 2 2 2 2 1 1 1 2 1 1 1 1 2 2 2 2 2 2 3 2 2 2 3 2 2 1 2 2 2 2 2 2 2 2 2 1 1 1
3 3 3 3 2 1 1 0 0 0 0 1 1 1 1 1 1 1 1 1 2 2 3 3 3 2 3 3 2 2 2 2 1 1 1 2 2 2 1 1 1 1 1 1
2 2 2 1 1 1 1 0 0 1 1 1 1 1 1 1 1 1 1 1 1 1 2 3 3 3 3 3 3 2 1 1 1 1 1 1 1 1 1 1 1 1 1 1
1 2 2 1 1 1 1 1 2 2 1 1 1 1 1 1 1 1 1 2 2 2 2 3 3 2 2 2 3 1 1 1 1 1 1 1 1 1 1 1 1 1 1 1
2 3 3 2 2 1 2 2 2 2 1 1 1 1 1 1 1 1 1 2 3 3 3 2 2 1 1 2 2 1 0 0 1 1 1 1 1 1 1 1 1 1 1 1
3 3 3 3 3 3 3 3 3 2 2 2 2 2 2 2 2 2 2 2 2 3 2 2 2 3 4 3 1 1 1 1 1 1 1 1 1 1 1 1 1 1 1 1
3 3 3 4 4 4 3 3 3 2 2 2 2 2 2 2 2 2 2 2 2 3 2 2 4 3 4 2 1 1 1 1 1 1 1 1 1 1 1 1 1 1 2 2
3 3 3 3 3 3 2 2 2 2 2 2 2 1 1 1 1 1 2 1 1 2 2 3 2 3 4 1 1 1 1 1 1 1 1 1 1 1 1 1 2 2 2 2
3 3 3 3 2 2 2 2 2 2 2 2 2 2 1 1 1 1 1 1 1 1 1 1 0 2 2 2 2 1 1 1 1 1 1 1 1 1 2 2 2 2 2 2
2 2 2 2 2 1 2 2 1 1 2 2 2 1 1 1 1 1 1 1 1 0 1 1 1 1 1 2 2 2 2 1 1 1 1 1 1 1 2 2 2 2 2 1
2 2 2 2 2 2 2 1 1 1 1 1 2 2 1 1 1 1 1 1 1 1 1 1 0 1 1 1 1 2 2 2 2 2 1 1 1 1 1 1 1 1 1 1
Wind_Direction
256 255 246 241 235 231 238 250 257 259 257 250 256 248 219 190 133 120 118 115 125 130 135 143 143 155 173 182 181 182 184 188 193 196 202 205 208 211 212 213 216 216 218 220
248 242 241 243 240 239 242 249 254 260 261 263 248 226 212 193 164 140 122 113 121 131 136 142 146 155 163 172 181 184 187 189 190 190 192 200 210 214 214 216 219 216 217 218
249 242 245 239 239 240 241 248 253 252 252 223 217 215 226 210 169 154 130 112 116 125 139 153 157 162 169 171 173 176 179 184 182 183 190 205 217 219 218 216 217 219 220 219
249 241 241 239 238 242 240 245 253 258 239 223 217 221 221 234 152 10 44 56 87 100 108 126 132 137 154 154 160 168 168 169 169 180 181 192 209 216 219 221 219 222 228 226
243 240 241 227 232 243 238 236 246 241 220 215 205 192 181 91 53 43 32 46 81 84 97 102 116 121 135 137 143 159 162 160 171 190 188 199 213 221 225 229 231 231 232 234
238 245 247 240 219 259 250 232 219 257 217 219 232 240 201 69 39 38 47 58 88 102 102 106 101 113 133 125 125 151 161 168 193 213 218 218 227 234 235 234 235 239 237 239
238 242 244 348 1 231 235 255 44 270 255 253 262 296 15 53 28 34 62 60 89 109 108 109 106 103 114 109 90 56 71 162 208 233 239 237 245 245 243 236 235 244 247 234
235 240 237 40 216 247 335 20 3 321 306 300 323 9 107 97 82 81 78 55 62 80 80 86 99 125 138 102 54 56 55 260 252 255 267 261 241 244 243 234 225 236 240 231
256 253 48 27 2 11 356 336 338 331 334 324 307 294 307 323 10 28 12 44 62 72 58 42 38 101 115 46 37 45 303 277 263 251 251 245 239 234 230 229 229 232 242 243
250 236 235 267 1 6 9 352 343 342 333 324 305 294 289 290 292 288 279 347 52 67 34 11 7 1 25 0 314 276 264 262 244 239 243 240 255 255 247 240 241 242 256 266
247 241 246 243 260 312 329 330 340 344 330 318 302 291 291 289 287 286 297 328 326 317 27 21 19 9 9 1 322 292 287 273 261 252 248 243 270 318 285 290 277 261 267 273
253 247 256 261 275 283 285 287 298 306 312 310 298 294 295 286 286 284 277 278 280 279 348 10 20 1 349 335 297 256 257 267 272 259 243 238 231 317 37 353 8 336 295 279
264 268 274 276 279 276 275 281 289 288 296 305 303 295 293 287 276 278 288 289 295 311 322 321 307 298 302 292 266 265 269 272 274 268 253 244 240 243 267 281 152 257 311 297
254 254 257 258 268 272 275 280 281 281 292 298 304 306 301 296 296 291 288 294 310 316 305 295 294 299 302 293 287 281 279 276 267 267 267 260 260 261 266 271 277 282 202 176
254 247 244 251 267 268 264 260 255 259 278 284 302 316 323 328 327 322 311 299 317 312 310 313 312 313 317 295 276 273 279 281 286 289 282 279 279 276 270 267 263 255 245 207
241 236 233 236 248 258 260 253 251 264 264 269 309 322 330 344 342 345 343 338 333 333 339 336 329 328 324 298 278 269 276 294 279 281 283 281 278 273 271 268 261 252 249 252
229 230 224 226 238 253 265 270 268 272 275 298 346 8 28 34 26 20 22 27 28 13 359 345 334 334 325 308 290 283 281 250 231 255 266 280 287 284 283 278 270 268 268 299
233 235 230 231 233 238 266 292 239 209 59 37 17 21 31 31 15 16 31 45 46 32 14 355 343 332 328 323 311 303 288 277 277 287 290 296 297 294 295 289 280 275 267 218
183 180 175 195 235 251 276 298 79 83 71 58 77 80 33 10 5 10 8 17 19 12 3 358 350 336 345 345 322 285 287 293 300 315 304 243 261 272 282 294 305 307 304 278
117 126 141 149 138 142 161 145 123 111 103 100 109 113 98 64 53 56 50 44 27 11 357 346 342 356 356 351 316 312 319 303 302 326 339 342 357 10 356 335 319 306 297 302
116 121 121 118 107 96 105 117 120 110 95 96 112 111 81 58 59 57 51 44 31 12 1 338 329 338 344 346 295 310 3 1 338 347 14 16 13 6 358 349 328 317 297 270
102 108 106 99 101 100 94 97 101 95 83 89 89 84 94 86 69 55 37 16 9 354 342 355 359 19 358 327 315 347 19 13 8 29 43 38 29 11 4 351 335 339 348 344
93 98 100 99 97 96 96 98 100 97 90 90 86 78 67 42 29 31 33 23 12 347 339 9 24 15 321 314 347 348 24 38 33 32 33 28 26 7 352 341 340 348 348 342
100 98 100 100 94 90 88 89 88 90 94 99 99 85 66 56 33 37 40 75 27 340 356 40 29 324 297 327 354 2 32 56 62 30 2 5 8 351 337 332 335 333 329 319
99 104 107 102 94 94 103 122 129 124 118 107 103 99 85 39 22 35 35 67 71 342 4 57 249 296 315 2 9 8 359 7 22 359 329 331 329 338 331 321 321 316 309 302
88 84 71 67 63 75 105 120 122 112 113 101 89 92 93 98 98 101 107 83 46 349 331 331 310 270 336 352 355 355 357 13 334 286 329 335 336 330 330 338 335 330 330 322
106 96 93 85 80 81 95 101 100 98 93 91 85 81 85 86 72 57 51 14 352 341 324 313 321 337 343 341 352 353 344 343 346 340 333 339 339 325 327 316 310 318 308 301
Height
1453 1450 1451 1452 1453 1454 1456 1454 1456 1453 1452 1454 1457 1461 1464 1466 1467 1468 1468 1469 1470 1470 1471 1473 1474 1476 1478 1481 1483 1485 1487 1489 1490 1492 1494 1495 1497 1498 1499 1500 1502 1503 1504 1505
1457 1451 1450 1453 1452 1452 1453 1452 1452 1452 1454 1454 1459 1462 1465 1466 1467 1467 1468 1469 1470 1470 1471 1472 1473 1475 1476 1478 1481 1483 1484 1486 1487 1489 1490 1491 1493 1494 1495 1496 1497 1498 1499 1500
1458 1451 1453 1457 1450 1450 1451 1450 1451 1453 1454 1456 1459 1462 1464 1465 1466 1467 1467 1468 1469 1470 1471 1472 1472 1473 1474 1476 1478 1480 1481 1482 1484 1485 1486 1487 1489 1491 1492 1492 1493 1493 1494 1495
1457 1459 1468 1450 1447 1448 1450 1451 1452 1453 1455 1457 1460 1463 1465 1466 1466 1467 1467 1468 1469 1470 1470 1471 1472 1472 1473 1474 1475 1477 1478 1479 1481 1482 1482 1483 1485 1487 1487 1488 1488 1489 1490 1490
1457 1457 1452 1450 1449 1450 1451 1452 1453 1454 1456 1458 1460 1462 1464 1466 1467 1467 1468 1468 1468 1469 1469 1469 1470 1471 1472 1472 1473 1474 1475 1476 1477 1479 1479 1480 1482 1483 1483 1484 1484 1484 1485 1485
1457 1461 1458 1449 1449 1452 1452 1454 1455 1457 1458 1459 1459 1458 1461 1465 1466 1467 1467 1467 1467 1468 1468 1468 1468 1469 1470 1471 1471 1472 1473 1473 1474 1476 1476 1477 1477 1479 1480 1479 1479 1480 1480 1480
1455 1455 1447 1449 1451 1452 1458 1455 1457 1458 1459 1460 1460 1461 1464 1465 1466 1466 1466 1466 1466 1466 1467 1467 1467 1468 1469 1469 1470 1470 1471 1471 1472 1473 1473 1473 1474 1475 1475 1475 1475 1475 1474 1474
1451 1454 1453 1452 1452 1454 1457 1459 1459 1459 1460 1461 1462 1463 1464 1464 1465 1465 1465 1465 1465 1465 1466 1466 1466 1467 1468 1468 1469 1469 1469 1469 1470 1470 1470 1471 1471 1471 1471 1471 1471 1470 1470 1470
1449 1452 1455 1456 1456 1459 1460 1460 1460 1460 1461 1461 1462 1462 1463 1464 1464 1464 1464 1464 1464 1464 1464 1465 1465 1466 1466 1466 1467 1467 1467 1467 1468 1468 1467 1468 1468 1468 1468 1468 1468 1467 1468 1468
1453 1452 1455 1457 1458 1459 1460 1460 1460 1460 1461 1461 1461 1461 1462 1462 1462 1463 1463 1463 1463 1463 1463 1464 1464 1464 1464 1464 1465 1465 1465 1465 1466 1466 1466 1466 1465 1466 1465 1465 1465 1465 1464 1465
1453 1454 1456 1457 1459 1459 1460 1460 1460 1460 1460 1460 1460 1461 1461 1461 1461 1461 1461 1461 1461 1461 1461 1461 1462 1462 1462 1462 1462 1463 1463 1463 1463 1463 1463 1463 1462 1462 1462 1461 1462 1461 1461 1460
1451 1453 1455 1457 1458 1458 1459 1459 1459 1459 1459 1459 1459 1459 1459 1459 1459 1459 1459 1459 1460 1460 1460 1460 1460 1460 1460 1461 1460 1461 1461 1461 1461 1461 1460 1460 1460 1459 1458 1458 1458 1458 1457 1458
1453 1454 1455 1456 1456 1457 1457 1458 1458 1458 1457 1457 1457 1457 1457 1457 1458 1458 1458 1458 1459 1459 1458 1458 1458 1458 1458 1458 1458 1458 1458 1458 1459 1458 1458 1457 1457 1456 1456 1455 1455 1454 1454 1454
1453 1453 1453 1454 1454 1455 1455 1455 1456 1456 1456 1456 1456 1456 1456 1456 1456 1456 1456 1457 1457 1456 1456 1456 1456 1456 1456 1457 1456 1456 1456 1456 1456 1455 1455 1455 1454 1453 1453 1452 1452 1451 1451 1451
1451 1451 1451 1452 1453 1453 1453 1454 1453 1453 1454 1454 1454 1454 1454 1454 1454 1454 1454 1455 1455 1455 1455 1455 1454 1454 1454 1454 1454 1454 1454 1454 1453 1453 1452 1452 1451 1451 1450 1450 1449 1448 1448 1448
1448 1448 1449 1450 1450 1451 1451 1451 1452 1452 1453 1453 1452 1452 1453 1453 1453 1453 1453 1453 1453 1453 1453 1453 1452 1452 1452 1452 1452 1451 1451 1450 1450 1450 1449 1449 1448 1448 1448 1447 1446 1446 1445 1445
1445 1445 1446 1447 1448 1449 1449 1450 1450 1451 1451 1451 1451 1451 1451 1452 1452 1452 1452 1452 1452 1452 1452 1451 1451 1450 1450 1449 1449 1449 1448 1447 1447 1447 1447 1446 1446 1446 1445 1444 1444 1443 1443 1443
1443 1444 1445 1446 1447 1448 1448 1449 1449 1450 1450 1450 1450 1451 1451 1451 1451 1451 1451 1451 1451 1450 1450 1450 1449 1448 1447 1447 1446 1446 1445 1445 1445 1444 1444 1444 1443 1443 1442 1441 1441 1441 1440 1440
1442 1443 1444 1445 1446 1447 1447 1448 1448 1449 1449 1450 1450 1450 1450 1450 1451 1450 1450 1450 1449 1449 1449 1448 1446 1446 1445 1444 1444 1443 1443 1443 1442 1442 1442 1441 1441 1441 1440 1439 1439 1438 1438 1437
1442 1443 1444 1445 1446 1446 1447 1447 1448 1448 1449 1450 1450 1450 1450 1450 1450 1450 1449 1449 1448 1448 1447 1446 1445 1444 1443 1442 1442 1441 1441 1441 1441 1440 1440 1440 1439 1439 1438 1438 1437 1436 1436 1435
1442 1443 1444 1444 1445 1446 1446 1447 1447 1448 1449 1449 1449 1450 1450 1450 1450 1449 1449 1448 1448 1446 1445 1444 1443 1443 1442 1441 1440 1440 1440 1440 1439 1439 1439 1438 1438 1438 1437 1437 1436 1435 1434 1434
1443 1444 1444 1444 1445 1446 1447 1447 1447 1448 1448 1449 1449 1449 1449 1449 1449 1449 1448 1448 1447 1445 1445 1444 1443 1442 1441 1440 1440 1440 1439 1439 1438 1438 1437 1437 1437 1437 1436 1435 1435 1434 1433 1432
1444 1444 1445 1445 1446 1446 1447 1447 1448 1448 1449 1449 1449 1449 1449 1449 1449 1449 1448 1448 1447 1445 1445 1444 1442 1441 1441 1440 1440 1439 1438 1438 1438 1437 1437 1437 1436 1436 1435 1434 1434 1433 1432 1431
1445 1445 1446 1446 1447 1447 1448 1448 1449 1449 1449 1449 1449 1449 1449 1449 1449 1449 1448 1447 1446 1445 1445 1443 1442 1441 1441 1440 1440 1439 1438 1438 1437 1437 1437 1436 1435 1435 1434 1433 1433 1432 1431 1430
1446 1446 1447 1447 1448 1448 1448 1449 1449 1450 1450 1450 1450 1450 1450 1450 1450 1449 1448 1448 1447 1446 1445 1444 1442 1442 1441 1440 1440 1439 1438 1438 1437 1436 1436 1435 1435 1434 1433 1432 1431 1430 1430 1429
1447 1447 1448 1448 1448 1449 1449 1449 1450 1450 1450 1450 1450 1450 1450 1450 1449 1449 1448 1448 1447 1446 1445 1444 1443 1442 1442 1441 1440 1439 1438 1437 1437 1436 1435 1435 1434 1433 1432 1431 1430 1429 1429 1428
1448 1448 1449 1449 1449 1449 1450 1450 1450 1450 1451 1451 1451 1451 1450 1450 1450 1449 1449 1448 1448 1447 1446 1445 1444 1443 1442 1441 1440 1439 1438 1437 1437 1436 1435 1434 1433 1433 1432 1430 1429 1428 1427 1427